| time (UTC) | temp F | wind direction | speed knots | gust knots | rain 1hr in | rain 24hr in | rain mn in | humidity % | barometer mb |
| 20260503045905 | 50 | 55 | 0.9 | 3.5 | 0.02 | 0.18 | 0.18 | 94 | 1011.0 |
| 20260503044905 | 50 | 53 | 0.9 | 2.6 | 0.02 | 0.17 | 0.17 | 93 | 1011.0 |
| 20260503043906 | 50 | 28 | 0.9 | 5.2 | 0.02 | 0.17 | 0.17 | 93 | 1011.0 |
| 20260503042904 | 50 | 49 | 0.9 | 4.3 | 0.02 | 0.17 | 0.17 | 93 | 1011.0 |
| 20260503035904 | 50 | 355 | 1.7 | 4.3 | 0.01 | 0.16 | 0.16 | 93 | 1011.1 |
| 20260503032904 | 50 | 57 | 0.9 | 3.5 | 0.01 | 0.15 | 0.15 | 93 | 1011.3 |
| 20260503031903 | 50 | 334 | 0.9 | 2.6 | 0.02 | 0.15 | 0.15 | 93 | 1011.3 |
| 20260503030906 | 50 | 32 | 0.9 | 3.5 | 0.02 | 0.15 | 0.15 | 93 | 1011.3 |
| 20260503025904 | 50 | 22 | 1.7 | 3.5 | 0.04 | 0.15 | 0.15 | 93 | 1011.3 |
| 20260503024905 | 50 | 351 | 0.9 | 4.3 | 0.05 | 0.14 | 0.14 | 93 | 1011.4 |
| 20260503023905 | 50 | 0 | 0.9 | 5.2 | 0.06 | 0.14 | 0.14 | 93 | 1011.3 |
| 20260503022905 | 50 | 18 | 0.9 | 3.5 | 0.07 | 0.14 | 0.14 | 93 | 1011.4 |
| 20260503021904 | 50 | 56 | 0.0 | 1.7 | 0.07 | 0.13 | 0.13 | 93 | 1011.5 |
| 20260503020909 | 51 | 56 | 0.0 | 1.7 | 0.06 | 0.13 | 0.13 | 93 | 1011.4 |
| 20260503015917 | 51 | 5 | 0.9 | 3.5 | 0.06 | 0.11 | 0.11 | 93 | 1011.5 |
| 20260503014905 | 51 | 28 | 0.9 | 3.5 | 0.04 | 0.09 | 0.09 | 93 | 1011.5 |
| 20260503013906 | 51 | 0 | 0.9 | 4.3 | 0.03 | 0.08 | 0.08 | 93 | 1011.6 |
| 20260503012908 | 51 | 346 | 0.9 | 2.6 | 0.02 | 0.07 | 0.07 | 93 | 1011.5 |
| 20260503011903 | 51 | 43 | 0.0 | 1.7 | 0.02 | 0.06 | 0.07 | 92 | 1011.6 |
| 20260503010907 | 51 | 36 | 1.7 | 3.5 | 0.02 | 0.06 | 0.06 | 92 | 1011.6 |
| 20260503005903 | 51 | 355 | 0.9 | 2.6 | 0.02 | 0.06 | 0.06 | 92 | 1011.7 |
| 20260503004903 | 51 | 324 | 0.0 | 0.0 | 0.04 | 0.06 | 0.06 | 92 | 1011.7 |
| 20260503003906 | 51 | 324 | 0.0 | 0.9 | 0.04 | 0.05 | 0.05 | 92 | 1011.7 |
| 20260503002903 | 51 | 324 | 0.0 | 0.9 | 0.04 | 0.05 | 0.05 | 92 | 1011.8 |
| 20260503001905 | 51 | 324 | 0.0 | 0.9 | 0.05 | 0.05 | 0.05 | 92 | 1011.8 |
| 20260503000906 | 51 | 324 | 0.0 | 0.9 | 0.04 | 0.04 | 0.04 | 91 | 1011.9 |
| 20260502235902 | 51 | 324 | 0.0 | 0.9 | 0.03 | 0.03 | 0.04 | 91 | 1011.9 |
| 20260502234917 | 51 | 324 | 0.0 | 0.9 | 0.02 | 0.02 | 0.02 | 90 | 1012.0 |
| 20260502233919 | 51 | 324 | 0.9 | 1.7 | 0.01 | 0.01 | 0.01 | 90 | 1012.1 |
| 20260502232903 | 51 | 300 | 0.0 | 1.7 | 0.01 | 0.01 | 0.01 | 90 | 1012.1 |
| 20260502231904 | 51 | 298 | 0.0 | 0.0 | 0.00 | 0.00 | 0.00 | 90 | 1012.1 |
| 20260502225904 | 52 | 298 | 0.0 | 0.0 | 0.00 | 0.00 | 0.00 | 90 | 1012.1 |
| 20260502224905 | 52 | 298 | 0.0 | 0.9 | 0.00 | 0.00 | 0.00 | 89 | 1012.0 |
| 20260502223905 | 52 | 298 | 0.0 | 0.0 | 0.00 | 0.00 | 0.00 | 88 | 1012.0 |
| 20260502222905 | 52 | 298 | 0.0 | 0.9 | 0.00 | 0.00 | 0.00 | 89 | 1012.0 |
| 20260502221904 | 52 | 298 | 0.0 | 0.9 | 0.00 | 0.00 | 0.00 | 88 | 1012.1 |
| 20260502220905 | 52 | 298 | 0.0 | 0.9 | 0.00 | 0.00 | 0.00 | 88 | 1012.2 |
| 20260502215904 | 52 | 298 | 0.0 | 0.9 | 0.00 | 0.00 | 0.00 | 87 | 1012.2 |
| 20260502214905 | 52 | 298 | 0.0 | 0.0 | 0.00 | 0.00 | 0.00 | 87 | 1012.2 |
| 20260502213906 | 53 | 298 | 0.9 | 1.7 | 0.00 | 0.00 | 0.00 | 87 | 1012.2 |
| 20260502211903 | 53 | 298 | 0.0 | 0.9 | 0.00 | 0.00 | 0.00 | 86 | 1012.4 |
| 20260502205903 | 53 | 298 | 0.0 | 0.9 | 0.00 | 0.00 | 0.00 | 84 | 1012.4 |
| 20260502204905 | 54 | 298 | 0.0 | 0.0 | 0.00 | 0.00 | 0.00 | 82 | 1012.5 |
| 20260502203907 | 54 | 298 | 0.0 | 1.7 | 0.00 | 0.00 | 0.00 | 82 | 1012.6 |
| 20260502202903 | 54 | 298 | 0.9 | 2.6 | 0.00 | 0.00 | 0.00 | 82 | 1012.6 |
| 20260502200906 | 55 | 221 | 0.0 | 0.9 | 0.00 | 0.00 | 0.00 | 80 | 1012.6 |
| 20260502195903 | 55 | 221 | 0.0 | 1.7 | 0.00 | 0.00 | 0.00 | 79 | 1012.7 |
| 20260502194903 | 55 | 221 | 0.0 | 1.7 | 0.00 | 0.00 | 0.00 | 80 | 1012.6 |
| 20260502193905 | 55 | 221 | 0.0 | 1.7 | 0.00 | 0.00 | 0.00 | 79 | 1012.6 |
| 20260502192904 | 55 | 221 | 0.0 | 0.9 | 0.00 | 0.00 | 0.00 | 79 | 1012.4 |
| 20260502191903 | 55 | 221 | 0.0 | 1.7 | 0.00 | 0.00 | 0.00 | 80 | 1012.4 |
| 20260502190906 | 56 | 221 | 0.9 | 3.5 | 0.00 | 0.00 | 0.00 | 79 | 1012.4 |
| 20260502185904 | 56 | 221 | 0.9 | 3.5 | 0.00 | 0.00 | 0.00 | 78 | 1012.4 |
| 20260502184905 | 56 | 210 | 1.7 | 3.5 | 0.00 | 0.00 | 0.00 | 78 | 1012.4 |
| 20260502183906 | 56 | 220 | 0.9 | 2.6 | 0.00 | 0.00 | 0.00 | 78 | 1012.3 |
| 20260502181903 | 57 | 232 | 0.0 | 2.6 | 0.00 | 0.00 | 0.00 | 75 | 1012.3 |
| 20260502180906 | 58 | 117 | 0.0 | 2.6 | 0.00 | 0.00 | 0.00 | 74 | 1012.3 |
| 20260502163908 | 58 | 126 | 2.6 | 7.0 | 0.00 | 0.00 | 0.00 | 75 | 1012.6 |
| 20260502162904 | 58 | 173 | 3.5 | 7.8 | 0.00 | 0.00 | 0.00 | 76 | 1012.6 |
| 20260502161905 | 58 | 130 | 3.5 | 7.8 | 0.00 | 0.00 | 0.00 | 76 | 1012.6 |
| 20260502160907 | 57 | 178 | 2.6 | 8.7 | 0.00 | 0.00 | 0.00 | 76 | 1012.7 |
| 20260502151906 | 58 | 152 | 3.5 | 8.7 | 0.00 | 0.00 | 0.00 | 78 | 1013.0 |
| 20260502122852 | 56 | 172 | 2.6 | 6.1 | 0.00 | 0.00 | 0.00 | 84 | 1014.5 |
| 20260502121853 | 56 | 163 | 1.7 | 6.1 | 0.00 | 0.00 | 0.00 | 82 | 1014.6 |
| 20260502115853 | 57 | 238 | 1.7 | 4.3 | 0.00 | 0.00 | 0.00 | 84 | 1014.5 |
| 20260502113855 | 56 | 217 | 1.7 | 4.3 | 0.00 | 0.00 | 0.00 | 88 | 1014.7 |
| 20260502112852 | 55 | 198 | 1.7 | 5.2 | 0.00 | 0.00 | 0.00 | 87 | 1014.8 |
| 20260502110854 | 54 | 219 | 1.7 | 0.0 | 0.00 | 0.00 | 0.00 | 89 | 1014.9 |
| 20260502110203 | 54 | 178 | 1.7 | 7.0 | 0.00 | 0.14 | 0.00 | 89 | 1015.0 |
| 20260502105202 | 54 | 128 | 2.6 | 5.2 | 0.00 | 0.14 | 0.00 | 89 | 1015.0 |
| 20260502104204 | 54 | 149 | 2.6 | 5.2 | 0.00 | 0.14 | 0.00 | 89 | 1015.0 |
| 20260502103203 | 54 | 138 | 2.6 | 7.0 | 0.00 | 0.14 | 0.00 | 89 | 1015.1 |
| 20260502102203 | 54 | 210 | 2.6 | 5.2 | 0.00 | 0.14 | 0.00 | 89 | 1015.0 |
| 20260502091202 | 54 | 188 | 2.6 | 7.8 | 0.00 | 0.14 | 0.00 | 88 | 1015.0 |
| 20260502090202 | 55 | 167 | 1.7 | 6.1 | 0.00 | 0.14 | 0.00 | 87 | 1015.0 |
| 20260502071204 | 52 | 188 | 1.7 | 4.3 | 0.00 | 0.14 | 0.00 | 93 | 1014.8 |
| 20260502070202 | 52 | 148 | 0.9 | 4.3 | 0.00 | 0.14 | 0.00 | 94 | 1014.7 |
| 20260502065205 | 52 | 181 | 0.0 | 0.9 | 0.00 | 0.14 | 0.00 | 94 | 1014.6 |
| 20260502064204 | 52 | 181 | 0.0 | 0.9 | 0.00 | 0.14 | 0.00 | 94 | 1014.6 |
| 20260502063203 | 52 | 181 | 0.0 | 1.7 | 0.00 | 0.14 | 0.00 | 94 | 1014.6 |
| 20260502062201 | 52 | 181 | 0.0 | 0.9 | 0.00 | 0.14 | 0.00 | 94 | 1014.6 |
| 20260502061201 | 52 | 181 | 0.0 | 1.7 | 0.00 | 0.14 | 0.00 | 95 | 1014.6 |
| 20260502060157 | 51 | 181 | 0.0 | 1.7 | 0.00 | 0.14 | 0.00 | 95 | 1014.6 |
| 20260502055158 | 51 | 181 | 0.0 | 0.9 | 0.00 | 0.14 | 0.00 | 94 | 1014.6 |
| 20260502054158 | 51 | 181 | 0.0 | 0.9 | 0.00 | 0.14 | 0.00 | 94 | 1014.7 |
| 20260502053157 | 51 | 181 | 0.0 | 0.9 | 0.00 | 0.14 | 0.00 | 94 | 1014.6 |
| 20260502052158 | 51 | 181 | 0.0 | 1.7 | 0.00 | 0.14 | 0.00 | 94 | 1014.6 |